OBJECT C, 63293

Orbit data source: Space-Track

You're viewing an Uncataloged Satellite

Recently launched and/or uncataloged satellites may have evolving metadata. Metadata may include but not limited to: Owner, Maufacturer, Bus, Motor, and Mission.

OBJECT C, 63293 is a satellite owned by Yunyao yuhang (CN) in SSO that was launched on Mon, 17 Mar 2025 UTC via a GUSHENXING 1 launch vehicle from the Jiuquan Satellite Launch Center, China (JSC). Unknown objects in Earth's orbit typically refer to objects detected orbiting the Earth but have not yet been identified or cataloged. These objects could be anything from previously untracked satellites, spent rocket stages, debris from satellite collisions, or even natural meteoroids temporarily captured by Earth's gravity.

Loading next visibility...
Identifier
63293, 2025-055C
Orbit
SSO
Last TLE update
9 hours ago
Origin
Flag of CNYYAO (CN / PRC)
Manufacturer
Changguang WJ
Mission
Operational Commercial Meteo Radio Occ.
Bus & Motor
YY-1, Unknown motor
Mass
~50 kg wet, ~50 kg dry
Launch date (UTC)
2025-03-17 (4 months ago)
Launch vehicle
GUSHENXING 1
Launch site
Jiuquan Satellite Launch Center, China (JSC)
Object type
Unknown
Shape & HBR
Box + 1 Pan, 5 m
Radar Cross Section
5.339 m², Medium (>0.1 m² and < 1m²)

Expand to show TLE details & history

TLE from 9 hours ago
0 OBJECT C
1 63293U 25055C   25186.57536696  .00006655  00000-0  39116-3 0  9994
2 63293  97.6133 321.3655 0011460 273.7652  86.2267 15.11967289 16617
Epoch: 2025-07-05T13:48Z
TLE epoch observation values (Epoch: 2025-07-05T13:48:31.705Z)
Latitude
-0.00009°
Longitude
-169.57803°
Altitude
532.762 km
Speed
7.597 km/s
True Right ascension
21h 25m 27s
True Declination
0° 00' 00"
Sunlit
Object was in full shadow at epoch
Visualization orbit readout
Latitude
-78.47343°
Longitude
-29.88075°
Altitude
550.294 km
Speed
7.59 km/s
Apparent Right ascension
23h 54m 44s
Apparent Declination
-67° 51' 36"
Sunlit
Object is in daylight
Visualization observer readout
Local Sidereal Time
10:50:27
Azimuth
192.313° SSW
Elevation
-60.704°
Doppler factor
1
Orbital elements
Apogee altitude
535.1 km
Perigee altitude
519.273 km
Semi-major axis
6,905.324 km
Eccentricity
0.00115
Inclination
97.6133°
RAAN
321.3655°
Arg. of periapsis
273.7652°
True anomaly
Unknown
Mean anomaly
86.2267°
Eccentric anomaly
Unknown
Mean motion
3.7824 °/min
Orbital period
95.18 mins
BSTAR
0.00039116
Loading maneuver chart data...
Loading SW <> Apogee altitude chart data...
Loading historical data...
Loading historical data...
Loading historical data...
Loading historical data...
Loading historical data...
Loading historical data...
Loading historical data...

OBJECT C Visibility forecast

Observer location: undefined°, undefined°

Span
Click to sort rows by Start time (UTC) header in descending order
Start Az.
Max El. time (UTC)
Max El. Az.
Max El.
End time (UTC)
End Az.
7 mins2025-07-06 08:59:11.192Z164.565° S2025-07-06 09:03:11.192Z3.689° NNE43.439°2025-07-06 09:06:11.192Z349.339° N
5 mins2025-07-06 22:09:11.192Z355.988° N2025-07-06 22:11:11.192Z296.78° NW39.873°2025-07-06 22:14:11.192Z209.96° SW
|